Cape Girardeau, MO

5:01 AM CST on December 15, 2019 (GMT -0600)
Cape Girardeau Regional

Weather History for KCGI - October, 2019

Change the Weather History Date:

Saturday, October 26, 2019

  Actual Average Record
Temperature  
Mean Temperature 54 °F 55 °F  
Max Temperature 56 °F 67 °F 85 °F (1963)
Min Temperature 52 °F 42 °F 29 °F (1982)
Degree Days  
Heating Degree Days 11 11  
Month to date heating degree days 181 198  
Since 1 July heating degree days 181 247  
Cooling Degree Days 0 0  
Month to date cooling degree days 51 29  
Year to date cooling degree days 1775 1451  
Growing Degree Days 4 (Base 50)    
Moisture  
Dew Point 51 °F    
Average Humidity 90    
Maximum Humidity 96    
Minimum Humidity 83    
Precipitation  
Precipitation 3.87 in 0.13 in 3.87 in (2019)
Month to date precipitation 7.02 3.15  
Year to date precipitation 54.69 37.48  
Sea Level Pressure  
Sea Level Pressure 29.71 in    
Wind  
Wind Speed 14 mph (North)    
Max Wind Speed 28 mph    
Max Gust Speed 36 mph    
Visibility 5 miles    
Events Rain    
T = Trace of Precipitation, MM = Missing Value Source: NWS Daily Summary

Daily Weather History Graph

Daily Weather History Graph

Search for Another Location

Airport or City:

Astronomy

Oct. 26, 2019 Rise Set
Actual Time 7:16 AM CDT 6:07 PM CDT
Civil Twilight 6:49 AM CDT 6:34 PM CDT
Nautical Twilight 6:19 AM CDT 7:04 PM CDT
Astronomical Twilight 5:49 AM CDT 7:34 PM CDT
Moon 5:16 AM CDT (10/26) 5:39 PM CDT (10/26)
Length of Visible Light 11h 44m
Length of Day
10h 50m
Waning Crescent, 3% of the Moon is Illuminated
Oct 26
Waning Crescent
Oct 27
New
Nov 4
First Quarter
Nov 12
Full
Nov 19
Last Quarter

Hourly Weather History & Observations

Time (CDT) Temp. Dew Point Humidity Pressure Visibility Wind Dir Wind Speed Gust Speed Precip Events Conditions
12:53 AM 53.1 °F 48.9 °F 86% 30.01 in 9.0 mi NE 11.5 mph - 0.02 in Rain Light Rain
1:53 AM 53.1 °F 50.0 °F 89% 29.96 in 6.0 mi NNE 10.4 mph - 0.04 in Rain Light Rain
2:09 AM 53.1 °F 48.9 °F 86% 29.96 in 6.0 mi NNE 12.7 mph - 0.01 in Rain Light Rain
2:27 AM 52.0 °F 50.0 °F 93% 29.95 in 3.0 mi NNE 10.4 mph - 0.05 in Rain Rain
2:36 AM 52.0 °F 50.0 °F 93% 29.93 in 2.5 mi NNE 12.7 mph - 0.08 in Rain Rain
2:53 AM 52.0 °F 50.0 °F 93% 29.93 in 2.5 mi NNE 13.8 mph - 0.14 in Rain Rain
3:15 AM 52.0 °F 50.0 °F 93% 29.91 in 2.0 mi NNE 15.0 mph - 0.10 in Rain Heavy Rain
3:36 AM 52.0 °F 50.0 °F 93% 29.88 in 3.0 mi NNE 19.6 mph - 0.19 in Rain Rain
3:53 AM 52.0 °F 50.0 °F 93% 29.87 in 2.5 mi NNE 16.1 mph 23.0 mph 0.29 in Rain Heavy Rain
4:04 AM 52.0 °F 50.0 °F 93% 29.87 in 2.0 mi NNE 16.1 mph 25.3 mph 0.11 in Rain Heavy Rain
4:14 AM 53.1 °F 50.0 °F 89% 29.85 in 2.5 mi NE 20.7 mph 28.8 mph 0.19 in Rain Heavy Rain
4:37 AM 53.1 °F 51.1 °F 93% 29.85 in 3.0 mi NE 16.1 mph 26.5 mph 0.33 in Rain Heavy Rain
4:53 AM 53.1 °F 51.1 °F 93% 29.85 in 2.5 mi NE 13.8 mph 20.7 mph 0.42 in Rain Heavy Rain
4:58 AM 53.1 °F 51.1 °F 93% 29.85 in 3.0 mi NE 15.0 mph 21.9 mph 0.04 in Rain Heavy Rain
5:05 AM 53.1 °F 51.1 °F 93% 29.84 in 2.5 mi NNE 15.0 mph - 0.10 in Rain Heavy Rain
5:24 AM 53.1 °F 51.1 °F 93% 29.82 in 3.0 mi NNE 16.1 mph - 0.21 in Rain Heavy Rain
5:53 AM 54.0 °F 51.1 °F 90% 29.82 in 5.0 mi NNE 13.8 mph - 0.28 in Rain Rain
6:15 AM 54.0 °F 52.0 °F 93% 29.81 in 2.5 mi NNE 15.0 mph - 0.11 in Rain Rain
6:31 AM 54.0 °F 52.0 °F 93% 29.81 in 3.0 mi NNE 16.1 mph - 0.20 in Rain Heavy Rain
6:50 AM 55.4 °F 51.8 °F 88% 29.81 in 1.8 mi ENE 20.7 mph - 0.35 in Rain Heavy Rain
6:53 AM 55.0 °F 52.0 °F 89% 29.80 in 2.0 mi NE 20.7 mph 27.6 mph 0.37 in Rain Heavy Rain
7:04 AM 55.0 °F 52.0 °F 89% 29.79 in 4.0 mi ENE 21.9 mph - 0.04 in Rain Rain
7:53 AM 55.0 °F 52.0 °F 89% 29.73 in 3.0 mi ENE 20.7 mph - 0.31 in Rain Heavy Rain
8:31 AM 55.0 °F 52.0 °F 89% 29.72 in 2.5 mi NE 15.0 mph 28.8 mph 0.11 in Rain Rain
8:41 AM 55.0 °F 52.0 °F 89% 29.71 in 1.8 mi NE 18.4 mph 26.5 mph 0.17 in Rain Heavy Rain
8:53 AM 55.0 °F 52.0 °F 89% 29.70 in 1.2 mi NE 25.3 mph 35.7 mph 0.25 in Rain Heavy Rain
9:08 AM 54.0 °F 52.0 °F 93% 29.69 in 1.2 mi NE 21.9 mph 34.5 mph 0.13 in Rain Heavy Rain
9:26 AM 54.0 °F 52.0 °F 93% 29.68 in 1.2 mi NE 19.6 mph 29.9 mph 0.29 in Rain Heavy Rain
9:36 AM 54.0 °F 52.0 °F 93% 29.68 in 1.2 mi NNE 18.4 mph 29.9 mph 0.39 in Rain Heavy Rain
9:43 AM 54.0 °F 52.0 °F 93% 29.67 in 1.2 mi NE 17.3 mph 25.3 mph 0.46 in Rain Heavy Rain
9:53 AM 54.0 °F 52.0 °F 93% 29.66 in 1.8 mi NNE 15.0 mph 28.8 mph 0.52 in Rain Heavy Rain
10:26 AM 54.0 °F 52.0 °F 93% 29.62 in 2.5 mi NE 17.3 mph - 0.21 in Rain Rain
10:34 AM 54.0 °F 52.0 °F 93% 29.61 in 4.0 mi NE 18.4 mph 26.5 mph 0.22 in Rain Light Rain
10:53 AM 54.0 °F 52.0 °F 93% 29.59 in 3.0 mi NNE 11.5 mph 25.3 mph 0.27 in Rain Rain
11:01 AM 54.0 °F 51.1 °F 90% 29.58 in 2.0 mi NNE 15.0 mph 24.2 mph 0.03 in Rain Rain
11:13 AM 54.0 °F 51.1 °F 90% 29.58 in 1.0 mi NNE 12.7 mph 19.6 mph 0.15 in Rain Heavy Rain
11:21 AM 53.1 °F 51.1 °F 93% 29.57 in 0.8 mi North 12.7 mph - 0.30 in Rain Heavy Rain
11:34 AM 53.1 °F 51.1 °F 93% 29.55 in 1.2 mi NNE 11.5 mph - 0.43 in Rain Heavy Rain
11:53 AM 53.1 °F 52.0 °F 96% 29.55 in 1.5 mi North 9.2 mph 20.7 mph 0.59 in Rain Heavy Rain
12:39 PM 54.0 °F 51.1 °F 90% 29.52 in 2.0 mi NNW 15.0 mph 23.0 mph 0.29 in Rain Rain
12:53 PM 54.0 °F 52.0 °F 93% 29.49 in 2.5 mi North 19.6 mph 26.5 mph 0.33 in Rain Rain
1:38 PM 55.9 °F 53.1 °F 90% 29.50 in 8.0 mi WNW 10.4 mph - 0.02 in Rain Light Rain
1:46 PM 55.0 °F 53.1 °F 93% 29.51 in 9.0 mi West 13.8 mph - 0.02 in Rain Light Rain
1:53 PM 55.0 °F 52.0 °F 89% 29.51 in 5.0 mi WNW 13.8 mph - 0.03 in Rain Light Rain
2:37 PM 54.0 °F 51.1 °F 90% 29.51 in 10.0 mi WNW 12.7 mph - 0.01 in Rain Light Rain
2:53 PM 54.0 °F 51.1 °F 90% 29.53 in 10.0 mi West 12.7 mph - 0.01 in   Overcast
3:17 PM 54.0 °F 51.1 °F 90% 29.50 in 10.0 mi North 11.5 mph - 0.01 in Rain Light Rain
3:53 PM 55.0 °F 52.0 °F 89% 29.46 in 10.0 mi North 11.5 mph - 0.02 in   Scattered Clouds
4:02 PM 55.9 °F 52.0 °F 87% 29.52 in 10.0 mi West 16.1 mph 21.9 mph N/A   Scattered Clouds
4:18 PM 55.0 °F 51.1 °F 86% 29.59 in 10.0 mi WSW 19.6 mph 27.6 mph N/A   Mostly Cloudy
4:53 PM 55.0 °F 51.1 °F 86% 29.61 in 10.0 mi WSW 16.1 mph 24.2 mph N/A   Overcast
5:53 PM 55.0 °F 51.1 °F 86% 29.63 in 9.0 mi West 18.4 mph - N/A   Overcast
6:22 PM 54.0 °F 52.0 °F 93% 29.64 in 10.0 mi West 11.5 mph - 0.00 in   Overcast
6:30 PM 54.0 °F 52.0 °F 93% 29.64 in 10.0 mi West 10.4 mph - 0.00 in   Overcast
6:53 PM 54.0 °F 51.1 °F 90% 29.65 in 10.0 mi West 12.7 mph - 0.00 in Rain Light Rain
7:14 PM 54.0 °F 51.1 °F 90% 29.66 in 10.0 mi West 15.0 mph - 0.00 in   Overcast
7:26 PM 54.0 °F 50.0 °F 86% 29.67 in 10.0 mi West 11.5 mph - 0.00 in   Overcast
7:53 PM 54.0 °F 50.0 °F 86% 29.68 in 10.0 mi West 10.4 mph - 0.00 in   Overcast
8:34 PM 54.0 °F 50.0 °F 86% 29.71 in 10.0 mi WSW 8.1 mph - 0.00 in   Overcast
8:53 PM 54.0 °F 50.0 °F 86% 29.73 in 10.0 mi West 11.5 mph - 0.00 in   Overcast
9:50 PM 53.6 °F 48.2 °F 82% 29.76 in 10.0 mi WSW 6.9 mph - N/A   Overcast
9:53 PM 53.1 °F 48.9 °F 86% 29.76 in 10.0 mi SW 8.1 mph - N/A   Overcast
10:53 PM 53.1 °F 48.9 °F 86% 29.81 in 10.0 mi West 11.5 mph - N/A   Overcast
11:53 PM 52.0 °F 48.0 °F 86% 29.82 in 10.0 mi WSW 8.1 mph - N/A   Overcast